[[{"header":{"parameterUnit":"m.s-1","parameterCategory":2,"la1":30.2991,"la2":30.254,"lo1":-89.0895,"lo2":-89.0444,"dy":0.0017,"dx":0.0017,"nx":28,"ny":28,"refTime":"2024-06-23T03:00:00:Z","depth":"0","parameterNumber":2,"parameterNumberName":"U-component_of_CURRENTS"},"data":[0,0,0,0,0,0,0,0,0,0,0,0,0,0,0,0,0,0,0,0,0,0,0,0,0,0,0,0,0,0,0,0,0,0,0,0,0,0,0,0,0,0,0,0,0,0,0,0,0,0,0,0,0,0,0,0,0,0,0.5775,0.5776,0,0.5891,0.5892,0.5893,0.5938,0.5937,0.5937,0.5937,0.5795,0.5792,0.5788,0,0,0,0,0,0,0,0,0,0,0,0,0,0.5673,0.5674,0.5775,0.5777,0.5778,0.589,0.5892,0.5893,0.5938,0.5937,0.5937,0.5937,0.5796,0.5792,0.5788,0,0,0,0,0,0,0,0,0,0,0,0,0,0.5745,0.5674,0.5775,0.5814,0.5819,0.589,0.5892,0.5894,0.5938,0.5937,0.5937,0.5936,0.5798,0.5793,0.5787,0.5764,0,0,0.5771,0.5769,0,0,0,0,0,0,0,0,0.5741,0.5749,0.5807,0.5811,0.5817,0.5899,0.5804,0.5838,0.5938,0.5892,0.5937,0.5936,0.5807,0.5801,0.5827,0.5758,0.5752,0.5771,0.5768,0.5766,0.5764,0,0,0,0,0,0,0,0.5736,0.5744,0.5821,0.5808,0.5814,0.5853,0.5862,0.5812,0.5845,0.5896,0.59,0.5913,0.5807,0.5832,0.5823,0.5749,0.5771,0.5766,0.5763,0.5761,0.5518,0.5515,0,0,0,0,0,0,0.5719,0.5739,0.5817,0.5824,0.5777,0.5855,0.5865,0.5873,0.5852,0.585,0.5913,0.5915,0.5841,0.5829,0.5818,0.5651,0.5766,0.5761,0.5758,0.5521,0.5517,0.5514,0,0,0,0,0,0,0.5716,0.5724,0.5812,0.5785,0.5799,0.5856,0.5866,0.5876,0.5915,0.5868,0.5861,0.5944,0.584,0.5825,0.5735,0.565,0.5758,0.5754,0.5525,0.552,0.5516,0.5404,0,0,0,0,0,0,0.5712,0.5722,0.5718,0.5783,0.58,0.5836,0.5867,0.5878,0.5923,0.5926,0.5891,0.5878,0.5839,0.5742,0.5729,0.5645,0.5749,0.5529,0.5523,0.5517,0.5412,0.5396,0.5382,0,0,0,0,0,0.5708,0.5698,0.5717,0.5726,0.5793,0.5835,0.5847,0.5887,0.5925,0.5926,0.5881,0.5879,0.5693,0.5736,0.5721,0.5633,0.5532,0.5525,0.5518,0.5418,0.5399,0.5382,0,0,0,0,0,0,0.5624,0.5704,0.5725,0.5732,0.5774,0.5842,0.5846,0.59,0.5882,0.5866,0.5845,0.5825,0.5721,0.5696,0.5745,0.5545,0.561,0.5599,0.5539,0.552,0.5506,0.5571,0.5745,0,0,0,0,0,0.5611,0.563,0.5703,0.5697,0.5722,0.5795,0.5821,0.5851,0.5852,0.5851,0.5822,0.5761,0.5681,0.5619,0.5565,0.5453,0.5533,0.5385,0.537,0.5357,0.5399,0.5456,0.5452,0.5489,0.5489,0.5489,0,0,0.5558,0.5617,0.5614,0.5683,0.5719,0.5708,0.5808,0.5834,0.5795,0.5826,0.5744,0.5725,0.565,0.552,0.5468,0.5481,0.5381,0.5348,0.5337,0.5388,0.5448,0.5446,0.5444,0.5484,0.5485,0.5486,0,0,0.5476,0.5533,0.5523,0.5564,0.5628,0.5653,0.5666,0.5729,0.5729,0.5663,0.5662,0.5609,0.5488,0.5422,0.5368,0.5244,0.5325,0.5205,0.5147,0.5199,0.5198,0.5199,0.5279,0.5288,0.5166,0.5166,0.5166,0,0.5407,0.5414,0.5519,0.5527,0.5525,0.5622,0.5581,0.5591,0.5603,0.5596,0.5601,0.5508,0.5436,0.5313,0.5247,0.521,0.5284,0.5216,0.5186,0.5188,0.5191,0.5273,0.5285,0.5159,0.516,0.5161,0.5161,0,0.533,0.5326,0.5323,0.5346,0.5359,0.5343,0.5374,0.5373,0.5385,0.5409,0.5355,0.5308,0.5272,0.5202,0.5167,0.5123,0.5185,0.519,0.5246,0.5182,0.527,0.5284,0.515,0.5153,0.5155,0.5156,0,0,0.5175,0.5248,0.5242,0.5236,0.5264,0.5273,0.5196,0.5183,0.5212,0.518,0.5203,0.5045,0.5138,0.509,0.5074,0.5081,0.5121,0.5133,0.5138,0.524,0.5282,0.5281,0.5297,0.5137,0.5139,0.514,0.5332,0,0.5063,0.504,0.5092,0.5012,0.4991,0.5049,0.5002,0.5012,0.5049,0.5102,0.5084,0.5105,0.5055,0.5086,0.5071,0.5158,0.5158,0.5073,0.5308,0.5316,0.5345,0.5312,0.518,0.5337,0.5346,0.5349,0.5351,0,0.4957,0.4963,0.4887,0.49,0.4901,0.4867,0.4887,0.4874,0.4957,0.5013,0.5054,0.5127,0.5132,0.513,0.5217,0.5181,0.5218,0.5266,0.5274,0.5339,0.5341,0.5403,0.5364,0.5233,0.5374,0.5372,0.537,0,0.4833,0.481,0.4747,0.4748,0.4777,0.4757,0.4769,0.4845,0.4902,0.5025,0.5122,0.5165,0.525,0.5293,0.5367,0.532,0.5522,0.5465,0.5489,0.5491,0.5462,0.5457,0.5354,0.5521,0.552,0.552,0.5519,0,0.4711,0.4665,0.4704,0.4689,0.4666,0.4701,0.4741,0.4799,0.493,0.5039,0.511,0.5236,0.5308,0.5423,0.544,0.554,0.5575,0.5514,0.5541,0.5412,0.5401,0.5355,0.5291,0.5527,0.5525,0.5524,0.5523,0,0.4616,0.4621,0.4592,0.4613,0.4626,0.4633,0.4749,0.4815,0.494,0.5101,0.5153,0.5336,0.5501,0.5566,0.5703,0.5661,0.5599,0.5748,0.5609,0.5614,0.5471,0.5406,0.5199,0.5043,0.581,0.5811,0.5812,0,0.4571,0.4542,0.4577,0.4599,0.462,0.4655,0.4705,0.4815,0.4911,0.5166,0.5241,0.5461,0.5585,0.5793,0.5823,0.5886,0.5656,0.5764,0.5605,0.5467,0.5416,0.5155,0.5017,0.5522,0.5521,0.552,0.5519,0,0.4516,0.4543,0.4564,0.4602,0.4638,0.4675,0.4748,0.4825,0.4984,0.5089,0.5277,0.5403,0.566,0.5698,0.5812,0.5819,0.5504,0.5739,0.562,0.5211,0.4899,0.4761,0.5419,0.5508,0.5509,0.551,0.551,0.5511,0.4528,0.4541,0.4586,0.4603,0.4641,0.466,0.4638,0.4736,0.4821,0.4912,0.518,0.5254,0.5501,0.5658,0.5629,0.5543,0.5449,0.5389,0.534,0.5102,0.4862,0.5513,0.5606,0.5608,0.5609,0.5611,0.5612,0,0.4512,0.4533,0.4575,0.4565,0.4537,0.4578,0.4623,0.455,0.4539,0.4715,0.4797,0.5029,0.5119,0.5248,0.5342,0.5179,0.4883,0.5034,0.4625,0.4522,0.5157,0.5056,0.5002,0.5002,0.5003,0.5003,0.5003,0.5003,0.4525,0.4529,0.4516,0.443,0.441,0.4271,0.4241,0.4166,0.4208,0.4205,0.4277,0.4465,0.485,0.5067,0.4978,0.486,0.4452,0.429,0.421,0.4685,0.4712,0.4737,0.4623,0.448,0.4479,0.3395,0.3387,0.3382]},{"header":{"parameterUnit":"m.s-1","parameterCategory":2,"la1":30.2991,"la2":30.254,"lo1":-89.0895,"lo2":-89.0444,"dy":0.0017,"dx":0.0017,"nx":28,"ny":28,"refTime":"2024-06-23T03:00:00:Z","depth":"0","parameterNumber":3,"parameterNumberName":"V-component_of_CURRENTS"},"data":[0,0,0,0,0,0,0,0,0,0,0,0,0,0,0,0,0,0,0,0,0,0,0,0,0,0,0,0,0,0,0,0,0,0,0,0,0,0,0,0,0,0,0,0,0,0,0,0,0,0,0,0,0,0,0,0,0,0,0.0186,0.0186,0,0.0124,0.0123,0.0122,0.0059,0.0059,0.0058,0.0057,-0.0049,-0.0051,-0.0053,0,0,0,0,0,0,0,0,0,0,0,0,0,0.0198,0.0198,0.0186,0.0185,0.0185,0.0124,0.0123,0.0122,0.0059,0.0059,0.0058,0.0057,-0.0048,-0.0051,-0.0053,0,0,0,0,0,0,0,0,0,0,0,0,0,0.0168,0.0199,0.0186,0.0148,0.0144,0.0124,0.0123,0.0121,0.0059,0.0058,0.0058,0.0057,-0.0047,-0.005,-0.0054,-0.0056,0,0,-0.0064,-0.0065,0,0,0,0,0,0,0,0,0.017,0.0167,0.0154,0.0151,0.0146,0.01,0.0088,0.0061,0.006,0.0089,0.0057,0.0056,-0.0001,-0.0008,-0.002,-0.0061,-0.0065,-0.0064,-0.0066,-0.0068,-0.0069,0,0,0,0,0,0,0,0.0172,0.0169,0.0159,0.0154,0.0149,0.0116,0.0111,0.0082,0.0048,0.0087,0.0082,0.008,-0.0004,-0.0017,-0.0023,-0.0067,-0.0064,-0.0067,-0.0069,-0.0071,-0.0127,-0.0126,0,0,0,0,0,0,0.0189,0.0172,0.0161,0.0157,0.0159,0.0117,0.0111,0.0114,0.0049,0.0039,0.008,0.0077,-0.0011,-0.0019,-0.0027,-0.0009,-0.0068,-0.0071,-0.0073,-0.0127,-0.0127,-0.0126,0,0,0,0,0,0,0.0189,0.0188,0.0164,0.0164,0.0159,0.0119,0.0122,0.0113,0.0108,0.0045,0.0034,0.0084,-0.0012,-0.0023,-0.0038,-0.0015,-0.0072,-0.0076,-0.0128,-0.0127,-0.0126,0.0012,0,0,0,0,0,0,0.019,0.0189,0.0199,0.0166,0.016,0.0179,0.0123,0.0113,0.0108,0.0103,0.0045,0.0033,-0.0013,-0.0033,-0.0042,-0.002,-0.0078,-0.0129,-0.0127,-0.0127,0.0006,0.0017,0.0026,0,0,0,0,0,0.0191,0.0214,0.02,0.0198,0.0174,0.0181,0.0176,0.014,0.011,0.0127,0.0079,0.0035,-0.0034,-0.0034,-0.0045,-0.0024,-0.0129,-0.0128,-0.0127,0.0002,0.0015,0.0026,0,0,0,0,0,0,0.0231,0.0209,0.0193,0.021,0.0208,0.0172,0.0182,0.0155,0.0129,0.012,0.0051,0.0038,0.0029,-0.0017,-0.0016,-0.0042,-0.0092,-0.0093,0.0009,0.0021,0.003,0.0059,-0.0081,0,0,0,0,0,0.0245,0.0255,0.0234,0.0254,0.0254,0.022,0.0216,0.0197,0.0169,0.0157,0.0112,0.006,0.0024,0.0009,-0.003,-0.0033,-0.0085,-0.0032,-0.0022,-0.0013,0.0,-0.0056,-0.0049,-0.0122,-0.0122,-0.0122,0,0,0.0271,0.0258,0.0266,0.0263,0.0253,0.0279,0.0216,0.0228,0.0246,0.015,0.0156,0.0097,0.003,0.0023,0.0014,-0.001,-0.002,-0.0012,-0.0003,0.0005,-0.0054,-0.0047,-0.0041,-0.0121,-0.0121,-0.0122,0,0,0.0338,0.0315,0.0352,0.0355,0.0352,0.0331,0.0342,0.0316,0.0301,0.0302,0.0229,0.0186,0.0141,0.0093,0.0063,0.0103,0.0033,0.0089,0.0167,0.0113,0.0119,0.0124,0.0075,0.0074,0.0096,0.0096,0.0096,0,0.0371,0.0408,0.0368,0.0408,0.0418,0.0364,0.0413,0.0397,0.0369,0.0362,0.0324,0.0236,0.0173,0.0155,0.0163,0.0127,0.0089,0.0134,0.0129,0.0132,0.0134,0.0082,0.008,0.0103,0.0102,0.0101,0.0101,0,0.047,0.0498,0.0524,0.0549,0.0556,0.059,0.0564,0.0566,0.0528,0.05,0.0471,0.0378,0.0326,0.0293,0.0242,0.023,0.0195,0.0149,0.0107,0.0151,0.0092,0.0087,0.0113,0.011,0.0108,0.0107,0,0,0.0547,0.0585,0.0597,0.0631,0.063,0.0651,0.0678,0.0686,0.0712,0.0649,0.0665,0.0569,0.0503,0.0464,0.0381,0.0327,0.03,0.026,0.0254,0.0227,0.0193,0.0183,0.0175,0.0262,0.0261,0.0261,0.0148,0,0.0641,0.0739,0.0725,0.0818,0.0863,0.0821,0.0854,0.0847,0.0823,0.0825,0.071,0.0688,0.0575,0.0551,0.0481,0.0352,0.0292,0.0336,0.014,0.0134,0.0134,0.0171,0.0225,0.013,0.0142,0.0141,0.0141,0,0.0745,0.0792,0.0899,0.0947,0.0963,0.1007,0.1041,0.1068,0.1043,0.102,0.0965,0.0874,0.0785,0.068,0.0484,0.0523,0.0374,0.0259,0.0251,0.0192,0.0116,0.0084,0.0119,-0.0158,0.0131,0.0132,0.0133,0,0.0825,0.091,0.0997,0.1018,0.1067,0.1106,0.1128,0.1131,0.1178,0.1149,0.1165,0.1032,0.0986,0.0784,0.0545,0.0517,0.0332,0.0254,0.0099,0.0096,0.0077,0.0074,-0.0164,0.0109,0.011,0.011,0.011,0,0.0924,0.0996,0.1048,0.1103,0.1212,0.1201,0.1313,0.1316,0.1347,0.1435,0.1275,0.1307,0.1013,0.0868,0.0616,0.0366,0.038,0.0127,0.0073,0.0126,0.0129,-0.0166,-0.0299,0.0106,0.0107,0.0108,0.0108,0,0.1012,0.1045,0.1154,0.1227,0.1263,0.1344,0.1453,0.1531,0.1531,0.1644,0.164,0.1527,0.1342,0.1031,0.072,0.0485,0.0079,0.0117,0.0206,0.0165,-0.0245,-0.0368,-0.0649,-0.0757,-0.0075,-0.0076,-0.0077,0,0.1069,0.1136,0.1259,0.1337,0.1384,0.1499,0.1588,0.1631,0.1735,0.1799,0.187,0.1725,0.1674,0.1204,0.0756,0.0322,0.006,0.0078,0.0016,-0.0247,-0.0426,-0.0537,-0.0614,0.0038,0.0038,0.0038,0.0038,0,0.1174,0.1218,0.1306,0.1466,0.1581,0.1721,0.1858,0.1973,0.2052,0.2148,0.2254,0.2216,0.1783,0.1376,0.0776,0.0476,-0.0082,0.0069,-0.023,-0.0369,-0.0477,-0.061,0.0082,0.0041,0.0041,0.004,0.004,0.004,0.125,0.1331,0.1445,0.1597,0.1739,0.1925,0.2059,0.2224,0.2418,0.2592,0.2556,0.2564,0.1977,0.1168,0.07,-0.0092,-0.0115,-0.0338,-0.0469,-0.0562,-0.0655,0.0052,-0.0034,-0.0035,-0.0035,-0.0036,-0.0036,0,0.1325,0.1418,0.1565,0.1747,0.1911,0.1973,0.2224,0.2375,0.2629,0.2817,0.2915,0.2681,0.1925,0.1152,0.007,-0.053,-0.0733,-0.0842,-0.1004,-0.1061,-0.0457,-0.0442,-0.0585,-0.0585,-0.0585,-0.0584,-0.0584,-0.0584,0.1372,0.1506,0.1579,0.1849,0.1989,0.2221,0.2373,0.2618,0.2813,0.3051,0.3114,0.3111,0.2545,0.059,-0.0773,-0.1075,-0.1479,-0.1556,-0.1788,-0.1401,-0.1365,-0.1331,-0.1353,-0.1684,-0.1685,-0.2314,-0.232,-0.2325]}],[{"header":{"parameterUnit":"m.s-1","parameterCategory":2,"la1":30.2991,"la2":30.254,"lo1":-89.0895,"lo2":-89.0444,"dy":0.0017,"dx":0.0017,"nx":28,"ny":28,"refTime":"2024-06-23T03:00:00:Z","depth":"2","parameterNumber":2,"parameterNumberName":"U-component_of_CURRENTS"},"data":[0,0,0,0,0,0,0,0,0,0,0,0,0,0,0,0,0,0,0,0,0,0,0,0,0,0,0,0,0,0,0,0,0,0,0,0,0,0,0,0,0,0,0,0,0,0,0,0,0,0,0,0,0,0,0,0,0,0,0.412,0.412,0,0.4119,0.412,0.4121,0.4183,0.4184,0.4184,0.4185,0.426,0.4261,0.4263,0,0,0,0,0,0,0,0,0,0,0,0,0,0.4076,0.4078,0.4121,0.412,0.4119,0.4119,0.412,0.4121,0.4183,0.4184,0.4185,0.4185,0.426,0.4261,0.4263,0,0,0,0,0,0,0,0,0,0,0,0,0,0.4097,0.4078,0.4121,0.4142,0.4143,0.4119,0.412,0.4122,0.4183,0.4184,0.4185,0.4186,0.4259,0.4261,0.4263,0.4253,0,0,0.4269,0.427,0,0,0,0,0,0,0,0,0.4096,0.41,0.414,0.4141,0.4142,0.4144,0.4131,0.4166,0.4182,0.4178,0.4185,0.4186,0.4221,0.4226,0.4237,0.4257,0.426,0.4269,0.427,0.4271,0.4272,0,0,0,0,0,0,0,0.4094,0.4099,0.413,0.4139,0.414,0.4117,0.4123,0.4138,0.4203,0.4179,0.4181,0.4164,0.4224,0.4234,0.4239,0.4261,0.4269,0.4271,0.4272,0.4273,0.4335,0.4335,0,0,0,0,0,0,0.4079,0.4099,0.413,0.4129,0.411,0.4116,0.4124,0.415,0.4201,0.4206,0.4163,0.4167,0.4231,0.4236,0.4242,0.4282,0.4271,0.4273,0.4274,0.4335,0.4335,0.4336,0,0,0,0,0,0,0.4079,0.4084,0.413,0.4103,0.4106,0.4116,0.4145,0.4149,0.4192,0.4186,0.4196,0.4204,0.4232,0.4239,0.4278,0.4284,0.4274,0.4276,0.4334,0.4335,0.4335,0.4331,0,0,0,0,0,0,0.4078,0.4085,0.4103,0.4104,0.4107,0.413,0.4143,0.4148,0.4173,0.418,0.4223,0.4229,0.4233,0.4276,0.428,0.4286,0.4277,0.4333,0.4334,0.4335,0.4331,0.4332,0.4333,0,0,0,0,0,0.4078,0.4075,0.4105,0.4107,0.4132,0.413,0.4131,0.4146,0.4174,0.4192,0.4224,0.423,0.4284,0.4278,0.4283,0.429,0.4333,0.4334,0.4335,0.4331,0.4332,0.4333,0,0,0,0,0,0,0.4048,0.408,0.4113,0.412,0.4137,0.4137,0.4138,0.4164,0.4204,0.4222,0.424,0.4248,0.4288,0.429,0.4282,0.431,0.4308,0.431,0.4302,0.4304,0.4304,0.4326,0.4279,0,0,0,0,0,0.4054,0.4077,0.41,0.4107,0.4123,0.4148,0.4151,0.4171,0.4193,0.4215,0.4242,0.4269,0.429,0.43,0.4323,0.4335,0.4372,0.4342,0.4343,0.4343,0.4365,0.4417,0.4425,0.4339,0.4339,0.4339,0,0,0.4043,0.4058,0.4073,0.4104,0.4125,0.414,0.4157,0.4172,0.4192,0.4214,0.4261,0.4285,0.43,0.4318,0.4334,0.4322,0.4388,0.4345,0.4345,0.4367,0.4419,0.4428,0.4435,0.434,0.434,0.434,0,0,0.4001,0.4058,0.4061,0.4084,0.411,0.4135,0.4151,0.4184,0.4216,0.4247,0.4275,0.4307,0.433,0.4343,0.4349,0.437,0.4402,0.4372,0.4381,0.443,0.4438,0.4445,0.4506,0.4518,0.4357,0.4357,0.4357,0,0.3984,0.4008,0.4055,0.406,0.4079,0.4143,0.4156,0.4189,0.4229,0.4256,0.4263,0.433,0.434,0.4371,0.4374,0.4373,0.4415,0.4372,0.4432,0.444,0.4448,0.4508,0.4522,0.4357,0.4357,0.4357,0.4357,0,0.3937,0.3978,0.3979,0.4033,0.406,0.4081,0.4137,0.4183,0.4231,0.4259,0.432,0.4343,0.4382,0.4379,0.4381,0.4435,0.4454,0.4439,0.443,0.4457,0.4518,0.4533,0.4357,0.4357,0.4357,0.4357,0,0,0.386,0.3937,0.3943,0.3986,0.406,0.4078,0.4131,0.4193,0.4252,0.4284,0.4349,0.4368,0.4405,0.4417,0.4431,0.4464,0.4543,0.4474,0.4477,0.4536,0.4676,0.4633,0.4646,0.4542,0.4544,0.4546,0.4698,0,0.3823,0.3842,0.3889,0.394,0.3979,0.4064,0.4114,0.418,0.4253,0.4333,0.4368,0.444,0.4411,0.4455,0.4476,0.4554,0.4583,0.4505,0.4641,0.4645,0.4606,0.4661,0.4299,0.4399,0.4713,0.4715,0.4717,0,0.3766,0.3802,0.3838,0.3948,0.3972,0.4008,0.4138,0.4188,0.4307,0.437,0.4438,0.4496,0.4571,0.4541,0.4657,0.4616,0.4646,0.4683,0.4688,0.4666,0.4631,0.4423,0.4415,0.4742,0.474,0.4738,0.4737,0,0.3702,0.3772,0.3812,0.3843,0.396,0.4002,0.4072,0.4195,0.4267,0.4417,0.4499,0.4585,0.4671,0.4715,0.4784,0.4741,0.492,0.4861,0.4845,0.4843,0.4571,0.4541,0.4929,0.4929,0.4929,0.4928,0.4928,0,0.3651,0.3686,0.3792,0.3816,0.3882,0.3977,0.4068,0.4161,0.4309,0.4405,0.4519,0.4631,0.4724,0.4828,0.4844,0.4914,0.4965,0.488,0.4886,0.456,0.4528,0.4847,0.4836,0.4934,0.4933,0.4932,0.4931,0,0.3572,0.3641,0.3696,0.3816,0.3855,0.3902,0.4051,0.4117,0.4288,0.4428,0.4488,0.4704,0.4862,0.4936,0.506,0.501,0.5069,0.5065,0.4692,0.4652,0.4942,0.4929,0.5071,0.5071,0.5071,0.5071,0.5071,0,0.353,0.3553,0.367,0.3699,0.3752,0.3842,0.3901,0.4079,0.4163,0.4463,0.4521,0.4762,0.4879,0.5066,0.5059,0.5098,0.513,0.4759,0.4592,0.4969,0.4961,0.4947,0.4934,0.423,0.4223,0.4218,0.4213,0,0.3459,0.3506,0.3545,0.3607,0.3667,0.373,0.3839,0.3905,0.4127,0.4274,0.4495,0.4634,0.4859,0.4769,0.4849,0.4806,0.4723,0.4648,0.5144,0.4259,0.419,0.4178,0.419,0.4163,0.4168,0.4171,0.4174,0.4176,0.3392,0.3398,0.3455,0.3491,0.3553,0.3595,0.3592,0.3732,0.3855,0.4025,0.4295,0.4379,0.4488,0.4446,0.4336,0.4252,0.4564,0.4324,0.4334,0.4352,0.4237,0.4172,0.4121,0.4125,0.4129,0.4133,0.4136,0,0.3292,0.3316,0.3338,0.3362,0.3346,0.3449,0.3518,0.3488,0.3554,0.3767,0.3918,0.3723,0.3714,0.3794,0.3614,0.3641,0.353,0.3469,0.3272,0.3331,0.3381,0.3205,0.2821,0.2816,0.2811,0.2807,0,0,0.3244,0.3212,0.3212,0.3144,0.3164,0.3096,0.3098,0.3105,0.3188,0.3216,0.3249,0.3565,0.3723,0.3221,0.3184,0.2958,0.3096,0.2845,0.392,0.375,0.3792,0.3925,0.3731,0,0,0,0,0]},{"header":{"parameterUnit":"m.s-1","parameterCategory":2,"la1":30.2991,"la2":30.254,"lo1":-89.0895,"lo2":-89.0444,"dy":0.0017,"dx":0.0017,"nx":28,"ny":28,"refTime":"2024-06-23T03:00:00:Z","depth":"2","parameterNumber":3,"parameterNumberName":"V-component_of_CURRENTS"},"data":[0,0,0,0,0,0,0,0,0,0,0,0,0,0,0,0,0,0,0,0,0,0,0,0,0,0,0,0,0,0,0,0,0,0,0,0,0,0,0,0,0,0,0,0,0,0,0,0,0,0,0,0,0,0,0,0,0,0,0.0352,0.0352,0,0.0299,0.0298,0.0297,0.0235,0.0235,0.0234,0.0234,0.0091,0.0088,0.0085,0,0,0,0,0,0,0,0,0,0,0,0,0,0.0331,0.0332,0.0352,0.0352,0.0352,0.0299,0.0298,0.0297,0.0235,0.0235,0.0234,0.0234,0.0092,0.0088,0.0085,0,0,0,0,0,0,0,0,0,0,0,0,0,0.0312,0.0332,0.0352,0.0318,0.0314,0.0299,0.0298,0.0296,0.0236,0.0235,0.0234,0.0233,0.0094,0.0089,0.0084,0.007,0,0,0.0069,0.0067,0,0,0,0,0,0,0,0,0.0313,0.0312,0.0323,0.032,0.0317,0.0276,0.0238,0.0218,0.0236,0.0261,0.0234,0.0233,0.0148,0.0139,0.0126,0.0063,0.0057,0.0069,0.0066,0.0063,0.0062,0,0,0,0,0,0,0,0.0314,0.0314,0.0327,0.0323,0.0319,0.0281,0.0278,0.0234,0.0205,0.0259,0.0255,0.0256,0.0145,0.0131,0.0122,0.0055,0.0069,0.0064,0.0061,0.0059,-0.0059,-0.0059,0,0,0,0,0,0,0.0334,0.0316,0.0329,0.0326,0.0317,0.0283,0.0279,0.0287,0.0207,0.0196,0.0257,0.0254,0.014,0.0128,0.0117,0.0092,0.0063,0.0059,0.0056,-0.0059,-0.0059,-0.0059,0,0,0,0,0,0,0.0334,0.0336,0.0331,0.0322,0.0319,0.0285,0.0294,0.0286,0.0274,0.0208,0.0194,0.0253,0.0139,0.0124,0.0082,0.0086,0.0057,0.0052,-0.0058,-0.0059,-0.0059,0.0045,0,0,0,0,0,0,0.0334,0.0337,0.0347,0.0324,0.0321,0.033,0.0295,0.0286,0.0277,0.0272,0.02,0.0186,0.0137,0.009,0.0077,0.0079,0.0048,-0.0058,-0.0058,-0.0059,0.0042,0.0048,0.0054,0,0,0,0,0,0.0333,0.0355,0.0348,0.035,0.0337,0.0332,0.0326,0.0295,0.0278,0.0279,0.0229,0.0188,0.0078,0.0086,0.0071,0.0072,-0.0058,-0.0058,-0.0059,0.0039,0.0047,0.0053,0,0,0,0,0,0,0.0354,0.035,0.0343,0.0363,0.0353,0.0323,0.0324,0.0304,0.0267,0.026,0.0192,0.0174,0.0136,0.0089,0.01,0.0034,0.0,-0.0003,0.008,0.0086,0.0092,0.0122,0.0044,0,0,0,0,0,0.0366,0.0379,0.0368,0.0385,0.0383,0.0355,0.0349,0.0332,0.0299,0.0282,0.0232,0.0173,0.0123,0.0096,0.0044,0.0015,-0.0029,0.0001,0.0007,0.0013,0.0025,-0.0032,-0.003,-0.006,-0.006,-0.006,0,0,0.0379,0.038,0.0388,0.039,0.0378,0.0386,0.0348,0.0349,0.0351,0.0272,0.0252,0.0195,0.012,0.0085,0.0063,0.0047,-0.0003,0.0012,0.0018,0.0027,-0.0032,-0.0029,-0.0027,-0.0061,-0.0061,-0.0061,0,0,0.0415,0.0415,0.0436,0.0434,0.043,0.0414,0.042,0.0395,0.0378,0.0357,0.0296,0.0245,0.0174,0.0122,0.0086,0.0093,0.0032,0.0072,0.0127,0.0072,0.0074,0.0076,0.0029,0.0025,0.0074,0.0075,0.0075,0,0.0429,0.0461,0.0441,0.046,0.0469,0.0433,0.0459,0.0437,0.04,0.0394,0.0362,0.0258,0.0192,0.0147,0.0147,0.0108,0.0072,0.0111,0.0082,0.0083,0.0083,0.0034,0.0029,0.0079,0.0079,0.0078,0.0078,0,0.0479,0.0503,0.0518,0.0532,0.0534,0.0553,0.053,0.0526,0.05,0.0473,0.043,0.0339,0.0281,0.0243,0.0197,0.0164,0.0137,0.0101,0.0073,0.0093,0.0039,0.0032,0.0087,0.0085,0.0083,0.0082,0,0,0.0514,0.0547,0.0553,0.0583,0.0579,0.0594,0.0599,0.06,0.0618,0.0551,0.0556,0.0449,0.0403,0.0359,0.0285,0.0229,0.0191,0.0177,0.0171,0.0147,0.0079,0.0053,0.0042,0.0156,0.0155,0.0155,0.0043,0,0.0561,0.0625,0.0621,0.0681,0.0716,0.0695,0.0709,0.07,0.0678,0.067,0.0569,0.0537,0.0446,0.0425,0.0354,0.0237,0.0177,0.0225,0.0048,0.0043,0.0031,0.0035,0.0083,-0.0012,0.0036,0.0035,0.0034,0,0.0614,0.0654,0.0727,0.0779,0.0792,0.0818,0.0855,0.0864,0.0834,0.0814,0.0759,0.0682,0.0591,0.0512,0.0323,0.0363,0.0235,0.0133,0.0125,0.0063,0.0004,-0.0029,-0.0028,0.0022,0.0023,0.0023,0.0024,0,0.067,0.073,0.08,0.0817,0.0861,0.0896,0.0918,0.0914,0.095,0.0914,0.0926,0.0796,0.0751,0.057,0.036,0.0345,0.0154,0.0101,-0.0048,-0.0051,-0.0065,-0.0068,-0.0034,-0.0033,-0.0033,-0.0033,-0.0032,0,0.0731,0.0786,0.084,0.0884,0.0975,0.0973,0.1062,0.1063,0.1083,0.1147,0.1012,0.1024,0.0767,0.0626,0.0409,0.0172,0.0187,-0.0033,-0.0081,-0.0029,-0.0027,-0.0044,-0.0043,-0.0037,-0.0036,-0.0035,-0.0035,0,0.0785,0.0817,0.0907,0.0978,0.1012,0.108,0.1179,0.1239,0.1238,0.1319,0.1316,0.1205,0.1024,0.0747,0.0463,0.0257,0.0014,-0.0078,0.0005,-0.0031,-0.017,-0.0163,-0.0258,-0.026,-0.0262,-0.0263,-0.0264,0,0.082,0.0874,0.0988,0.1055,0.1098,0.1201,0.1278,0.1321,0.1404,0.1442,0.1494,0.135,0.1279,0.0838,0.0447,0.0061,0.0009,-0.0149,-0.0185,-0.0155,-0.0193,-0.0184,-0.0175,-0.0166,-0.0166,-0.0167,-0.0167,0,0.0888,0.093,0.1006,0.1149,0.1253,0.1376,0.1499,0.1589,0.1658,0.1726,0.1792,0.1738,0.1332,0.0949,0.0414,0.0165,-0.0089,-0.0166,-0.0156,-0.0112,-0.0077,-0.0111,-0.0104,-0.0168,-0.0168,-0.0168,-0.0168,-0.0168,0.094,0.1005,0.1114,0.125,0.1378,0.1543,0.1654,0.1791,0.1946,0.2066,0.2016,0.1944,0.1508,0.0827,0.0361,-0.012,-0.0097,-0.0261,-0.0257,-0.0254,-0.0218,-0.0188,-0.0293,-0.0294,-0.0294,-0.0295,-0.0295,0,0.1005,0.1084,0.1207,0.1375,0.1521,0.1587,0.1796,0.191,0.2104,0.2217,0.227,0.1865,0.142,0.0904,0.0181,-0.0244,-0.026,-0.0364,-0.0302,-0.0295,-0.0291,-0.0256,-0.0343,-0.0344,-0.0346,-0.0347,0,0,0.1042,0.1164,0.1227,0.147,0.1594,0.1798,0.1923,0.2096,0.2221,0.233,0.2306,0.2221,0.1586,0.1054,0.0472,0.0049,-0.0014,-0.0011,0.008,0.0231,0.024,-0.0175,-0.0107,0,0,0,0,0]}],[{"header":{"parameterUnit":"m.s-1","parameterCategory":2,"la1":30.2991,"la2":30.254,"lo1":-89.0895,"lo2":-89.0444,"dy":0.0017,"dx":0.0017,"nx":28,"ny":28,"refTime":"2024-06-23T03:00:00:Z","depth":"4","parameterNumber":2,"parameterNumberName":"U-component_of_CURRENTS"},"data":[0,0,0,0,0,0,0,0,0,0,0,0,0,0,0,0,0,0,0,0,0,0,0,0,0,0,0,0,0,0,0,0,0,0,0,0,0,0,0,0,0,0,0,0,0,0,0,0,0,0,0,0,0,0,0,0,0,0,0.2351,0.2352,0,0.248,0.2481,0.2482,0.2581,0.2581,0.2582,0.2583,0.2766,0.277,0.2774,0,0,0,0,0,0,0,0,0,0,0,0,0,0.2219,0.2221,0.235,0.2352,0.2354,0.2479,0.2481,0.2483,0.258,0.2582,0.2583,0.2584,0.2765,0.277,0.2775,0,0,0,0,0,0,0,0,0,0,0,0,0,0.2305,0.2222,0.235,0.2418,0.2425,0.2479,0.2481,0.2483,0.258,0.2582,0.2583,0.2584,0.2764,0.2769,0.2775,0.2785,0,0,0.2794,0.2796,0,0,0,0,0,0,0,0,0.23,0.2309,0.2406,0.2413,0.2422,0.2516,0.2502,0.2587,0.258,0.2521,0.2583,0.2585,0.2687,0.2699,0.2719,0.2793,0.2801,0.2794,0.2798,0.2801,0.2802,0,0,0,0,0,0,0,0.2294,0.2305,0.2401,0.2408,0.2417,0.2452,0.2466,0.2519,0.2595,0.2526,0.2534,0.2548,0.2691,0.2713,0.2724,0.2804,0.2794,0.2799,0.2803,0.2806,0.3073,0.3077,0,0,0,0,0,0,0.2275,0.2299,0.2397,0.2405,0.2363,0.2453,0.2468,0.2484,0.2594,0.2612,0.2547,0.2552,0.2702,0.2717,0.2731,0.2899,0.28,0.2806,0.281,0.307,0.3074,0.3078,0,0,0,0,0,0,0.2272,0.2283,0.2392,0.2355,0.2372,0.2454,0.2471,0.2486,0.2559,0.2609,0.2628,0.2611,0.2704,0.2723,0.285,0.2901,0.2809,0.2814,0.3066,0.3071,0.3076,0.3139,0,0,0,0,0,0,0.2268,0.2281,0.2321,0.2354,0.2373,0.2463,0.247,0.2487,0.2563,0.2573,0.2669,0.2685,0.2706,0.2841,0.2856,0.2908,0.2819,0.3061,0.3068,0.3074,0.3132,0.3145,0.3157,0,0,0,0,0,0.2262,0.2298,0.2321,0.2336,0.2413,0.2465,0.248,0.2541,0.2565,0.2611,0.2694,0.2684,0.2893,0.285,0.2866,0.2921,0.3058,0.3066,0.3074,0.3127,0.3143,0.3156,0,0,0,0,0,0,0.2259,0.2312,0.2339,0.239,0.2443,0.2483,0.2541,0.2568,0.2666,0.2697,0.2736,0.2759,0.2889,0.2904,0.2855,0.302,0.2971,0.2982,0.3005,0.3021,0.3033,0.3019,0.2824,0,0,0,0,0,0.2274,0.2321,0.2368,0.2415,0.245,0.2503,0.2545,0.2583,0.2653,0.2699,0.2767,0.2847,0.2924,0.2974,0.3044,0.3134,0.3138,0.318,0.3192,0.3202,0.3206,0.3257,0.3273,0.3104,0.3104,0.3104,0,0,0.2281,0.2322,0.2348,0.2421,0.2472,0.253,0.2535,0.2612,0.2675,0.2703,0.2842,0.2903,0.2963,0.3074,0.313,0.3097,0.3259,0.3212,0.322,0.3218,0.3267,0.3283,0.3297,0.3109,0.3108,0.3107,0,0,0.2302,0.2364,0.2409,0.2462,0.2549,0.2586,0.2617,0.2695,0.2759,0.2876,0.2919,0.3015,0.3135,0.3183,0.3219,0.3341,0.3328,0.3371,0.3415,0.3466,0.3479,0.349,0.3528,0.3542,0.3368,0.3368,0.3368,0,0.2322,0.2378,0.2432,0.2491,0.2548,0.2615,0.2677,0.2745,0.2859,0.2915,0.2939,0.3127,0.3179,0.329,0.3341,0.3365,0.3391,0.3347,0.3478,0.3489,0.35,0.3535,0.355,0.3372,0.3372,0.3371,0.3371,0,0.2358,0.2432,0.2469,0.2568,0.2633,0.2705,0.279,0.2882,0.2963,0.3017,0.3168,0.3248,0.3348,0.3384,0.3405,0.3515,0.3509,0.3489,0.3427,0.352,0.3553,0.3567,0.3378,0.3376,0.3375,0.3374,0,0,0.233,0.2469,0.249,0.2554,0.2687,0.2736,0.2861,0.2974,0.306,0.3174,0.3279,0.3411,0.3448,0.3492,0.3531,0.3578,0.3682,0.3575,0.3576,0.359,0.3801,0.3576,0.357,0.3688,0.3691,0.3693,0.3795,0,0.2357,0.2467,0.2536,0.2659,0.2728,0.2835,0.2939,0.3051,0.316,0.3283,0.3364,0.3491,0.3489,0.3562,0.3607,0.3681,0.3723,0.3657,0.3729,0.3731,0.35,0.3579,0.3702,0.3806,0.3809,0.3811,0.3813,0,0.2366,0.2449,0.2566,0.2716,0.2759,0.2849,0.3028,0.3128,0.3292,0.3381,0.3494,0.3566,0.3689,0.3664,0.3797,0.3762,0.3791,0.3819,0.3823,0.3595,0.3531,0.3696,0.3839,0.3837,0.3835,0.3833,0.3831,0,0.2307,0.2466,0.2566,0.262,0.2797,0.2888,0.2997,0.3166,0.326,0.3457,0.3546,0.3676,0.378,0.3832,0.3899,0.3872,0.4018,0.3976,0.3793,0.3778,0.3919,0.3906,0.4049,0.4048,0.4048,0.4048,0.4048,0,0.2286,0.2372,0.2559,0.2613,0.2739,0.2879,0.3025,0.3153,0.3334,0.3435,0.3595,0.369,0.3833,0.3923,0.3943,0.391,0.4053,0.3809,0.3788,0.3948,0.3936,0.393,0.3915,0.4052,0.4051,0.405,0.4049,0,0.2192,0.2319,0.2436,0.2641,0.2712,0.2804,0.3021,0.3107,0.3317,0.3457,0.353,0.3746,0.3867,0.396,0.4072,0.3954,0.3955,0.3905,0.409,0.4078,0.3671,0.3659,0.3695,0.3688,0.3682,0.3677,0.3673,0,0.2147,0.2205,0.2422,0.2487,0.2591,0.275,0.2843,0.3071,0.3157,0.3454,0.3492,0.371,0.3818,0.379,0.3914,0.3921,0.3875,0.3837,0.3721,0.3658,0.3636,0.3633,0.3629,0.3663,0.3662,0.366,0.3659,0,0.2053,0.2152,0.2242,0.2375,0.2492,0.2597,0.2759,0.2801,0.3051,0.3267,0.3374,0.3448,0.3579,0.3651,0.369,0.3687,0.3835,0.3773,0.3784,0.3674,0.362,0.3603,0.3606,0.3638,0.3641,0.3643,0.3644,0,0.1979,0.2004,0.2132,0.2231,0.2356,0.2407,0.2517,0.2627,0.2744,0.3061,0.3097,0.3333,0.3547,0.3534,0.3572,0.355,0.3486,0.3344,0.3376,0.3401,0.3255,0.3139,0.2995,0,0,0,0,0,0.1887,0.1896,0.1974,0.2061,0.2174,0.2258,0.2435,0.2549,0.279,0.2779,0.2928,0.3036,0.3124,0.3257,0.3174,0.344,0.3494,0.3326,0.3345,0.3522,0.3546,0.34,0,0,0,0,0,0,0.1822,0.1881,0.191,0.19,0.1931,0.2034,0.2143,0.2313,0.2321,0.2582,0.2648,0.2845,0.2978,0.3137,0.3116,0.315,0.3095,0.3475,0.3467,0.3508,0.353,0.355,0.3407,0,0,0,0,0]},{"header":{"parameterUnit":"m.s-1","parameterCategory":2,"la1":30.2991,"la2":30.254,"lo1":-89.0895,"lo2":-89.0444,"dy":0.0017,"dx":0.0017,"nx":28,"ny":28,"refTime":"2024-06-23T03:00:00:Z","depth":"4","parameterNumber":3,"parameterNumberName":"V-component_of_CURRENTS"},"data":[0,0,0,0,0,0,0,0,0,0,0,0,0,0,0,0,0,0,0,0,0,0,0,0,0,0,0,0,0,0,0,0,0,0,0,0,0,0,0,0,0,0,0,0,0,0,0,0,0,0,0,0,0,0,0,0,0,0,0.0333,0.0332,0,0.0299,0.0298,0.0298,0.0268,0.0268,0.0267,0.0267,0.0166,0.0163,0.0161,0,0,0,0,0,0,0,0,0,0,0,0,0,0.0311,0.0312,0.0333,0.0332,0.0332,0.0299,0.0298,0.0297,0.0268,0.0268,0.0267,0.0267,0.0166,0.0163,0.016,0,0,0,0,0,0,0,0,0,0,0,0,0,0.0302,0.0312,0.0333,0.0315,0.0313,0.0299,0.0298,0.0297,0.0268,0.0268,0.0267,0.0267,0.0167,0.0164,0.016,0.0142,0,0,0.0148,0.0147,0,0,0,0,0,0,0,0,0.0303,0.0303,0.0317,0.0316,0.0314,0.0289,0.0253,0.0243,0.0268,0.0283,0.0267,0.0267,0.0202,0.0195,0.0188,0.0137,0.0133,0.0148,0.0146,0.0144,0.0143,0,0,0,0,0,0,0,0.0303,0.0304,0.0317,0.0317,0.0315,0.0287,0.0286,0.0251,0.0242,0.0282,0.028,0.0279,0.02,0.0192,0.0185,0.0131,0.0148,0.0145,0.0142,0.0141,0.0036,0.0036,0,0,0,0,0,0,0.0315,0.0305,0.0319,0.0317,0.0309,0.0288,0.0287,0.0296,0.0244,0.0236,0.0279,0.0278,0.0198,0.019,0.0181,0.0159,0.0144,0.014,0.0138,0.0037,0.0036,0.0036,0,0,0,0,0,0,0.0315,0.0317,0.032,0.031,0.0309,0.029,0.0299,0.0295,0.0293,0.0243,0.0234,0.0283,0.0198,0.0187,0.0154,0.0155,0.0139,0.0135,0.0037,0.0036,0.0036,0.0112,0,0,0,0,0,0,0.0314,0.0317,0.0331,0.0312,0.031,0.0319,0.03,0.0295,0.0293,0.0291,0.0242,0.0232,0.0197,0.016,0.0151,0.0149,0.0132,0.0038,0.0037,0.0036,0.0111,0.0114,0.0118,0,0,0,0,0,0.0314,0.0331,0.0332,0.0333,0.0329,0.0319,0.0316,0.0299,0.0294,0.0296,0.0262,0.0234,0.0147,0.0157,0.0146,0.0143,0.0038,0.0037,0.0036,0.0109,0.0114,0.0118,0,0,0,0,0,0,0.0328,0.0329,0.0329,0.0347,0.0339,0.0315,0.0319,0.0308,0.0284,0.0282,0.0234,0.0222,0.019,0.0154,0.0167,0.0107,0.0085,0.0082,0.0144,0.0148,0.0152,0.017,0.0129,0,0,0,0,0,0.034,0.0354,0.0346,0.036,0.036,0.0343,0.0339,0.0329,0.0305,0.0295,0.0261,0.0217,0.0175,0.0155,0.0112,0.0087,0.0049,0.0073,0.0077,0.008,0.0085,0.0032,0.0032,0.0032,0.0032,0.0032,0,0,0.035,0.0352,0.0361,0.0364,0.0358,0.0361,0.034,0.034,0.0339,0.0286,0.0274,0.0231,0.017,0.0139,0.0121,0.0112,0.0059,0.0079,0.0083,0.0085,0.0031,0.0031,0.0031,0.0031,0.0031,0.0031,0,0,0.0369,0.0381,0.0396,0.0395,0.0392,0.0381,0.0386,0.0369,0.036,0.0343,0.0299,0.026,0.0205,0.0161,0.0131,0.0127,0.0079,0.011,0.0146,0.0095,0.0095,0.0094,0.0048,0.0043,0.0113,0.0113,0.0113,0,0.038,0.0403,0.0397,0.0408,0.0415,0.0394,0.041,0.0395,0.0368,0.0364,0.0348,0.0261,0.0213,0.0167,0.0165,0.0136,0.0103,0.014,0.0102,0.01,0.0099,0.0051,0.0045,0.0117,0.0116,0.0116,0.0116,0,0.0405,0.0427,0.0436,0.0448,0.0451,0.0462,0.0447,0.0447,0.0435,0.0414,0.0376,0.0309,0.0262,0.0232,0.0199,0.016,0.0138,0.0115,0.0099,0.0104,0.0053,0.0045,0.0122,0.0121,0.0119,0.0119,0,0,0.0419,0.0449,0.0454,0.0478,0.0478,0.0488,0.0491,0.0489,0.0502,0.0454,0.0454,0.0368,0.0338,0.03,0.0246,0.0196,0.0154,0.016,0.0156,0.0129,0.0046,0.0034,0.0023,0.013,0.0128,0.0128,0.0017,0,0.0442,0.0484,0.0487,0.0529,0.0554,0.0548,0.0556,0.0549,0.0536,0.0529,0.0452,0.0426,0.0361,0.0348,0.0285,0.0191,0.0135,0.0186,0.0031,0.0027,0.0028,0.0014,0.0124,0.001,0.0008,0.0007,0.0006,0,0.0465,0.0495,0.0546,0.0592,0.0602,0.0624,0.0655,0.0661,0.0637,0.0625,0.058,0.0524,0.0445,0.0394,0.0229,0.0268,0.0166,0.0083,0.0076,0.0034,-0.0001,-0.0,-0.001,-0.0008,-0.0007,-0.0006,-0.0005,0,0.049,0.0537,0.0589,0.0604,0.0644,0.0675,0.0698,0.0697,0.0725,0.0697,0.0707,0.0594,0.056,0.0409,0.0242,0.0239,0.006,0.0031,-0.0084,-0.0086,-0.0073,-0.0072,-0.009,-0.009,-0.009,-0.009,-0.0089,0,0.0516,0.0559,0.0616,0.0648,0.0721,0.0729,0.0801,0.0805,0.0822,0.0864,0.0769,0.0764,0.0565,0.0441,0.0269,0.0073,0.0076,-0.0081,-0.0117,-0.004,-0.0034,-0.0079,-0.0077,-0.0094,-0.0093,-0.0092,-0.0091,0,0.0537,0.057,0.0641,0.0708,0.0742,0.0799,0.0893,0.0939,0.0943,0.0997,0.0996,0.0897,0.0734,0.0516,0.0276,0.0127,-0.0074,-0.0147,-0.0041,-0.0069,-0.0194,-0.0186,-0.0286,-0.0288,-0.0289,-0.029,-0.0291,0,0.0549,0.059,0.0697,0.0756,0.08,0.0891,0.0959,0.1002,0.1061,0.1078,0.1106,0.0979,0.088,0.0539,0.0293,-0.0046,-0.0099,-0.0207,-0.0216,-0.019,-0.0215,-0.0205,-0.0196,-0.0293,-0.0293,-0.0293,-0.0294,0,0.0578,0.0622,0.0686,0.0813,0.0907,0.1011,0.1115,0.1166,0.1219,0.1223,0.1204,0.1029,0.0843,0.0559,0.0296,0.005,-0.014,-0.022,-0.022,-0.023,-0.0199,-0.022,-0.021,-0.0298,-0.0297,-0.0297,-0.0296,0,0.0608,0.0656,0.0753,0.0866,0.0989,0.1106,0.1152,0.1226,0.1283,0.1299,0.1291,0.1085,0.0973,0.0608,0.0366,0.0121,0.0048,-0.004,-0.005,-0.0049,0.0043,0.0119,0.0086,0,0,0,0,0,0.0632,0.0694,0.0797,0.0925,0.1048,0.1128,0.1249,0.1284,0.1337,0.134,0.1323,0.115,0.0803,0.0652,0.0406,0.031,-0.0017,0.0009,-0.0128,-0.032,-0.0316,-0.0251,0,0,0,0,0,0,0.065,0.0745,0.0797,0.0963,0.1056,0.12,0.1283,0.1315,0.1317,0.1329,0.1152,0.1076,0.0736,0.0947,0.0399,0.0324,0.0199,-0.0149,-0.0155,-0.0323,-0.0319,-0.0315,-0.0247,0,0,0,0,0]}]]